weather.gov     
National Weather Service

Regional Weather Roundup
NWS Homepage
This page is being discontinued on March 12, 2014.
The same data is available at this site. Please update your bookmarks.
Thank you, and we apologize for the inconvenience.
Please send an email to SR-SRH.Webmaster@noaa.gov with any concerns.


Current Version
Previous Version:    01  02  03  04  05  06  07  08  09  10  11  12  13  14  15  16  17  18  19  20  21  22  23  24  25  26  
[Printable]
991
ASUS42 KKEY 191410
RWRKEY

FLORIDA REGIONAL WEATHER ROUNDUP FOR THE FLORIDA KEYS
NATIONAL WEATHER SERVICE KEY WEST FLORIDA
900 AM EST FRI DEC 19 2014

...SOUTH FLORIDA AND THE KEYS...

CITY           SKY/WX    TMP DP  RH WIND       PRES   REMARKS
FORT MYERS     SUNNY     58  52  80 NE3       30.13R
SW REGIONAL AP SUNNY     56  51  84 NE5       30.13R
NAPLES         SUNNY     61  52  72 NE6       30.12R
MIAMI          MOSUNNY   68  54  60 NE5       30.11R
WEST KENDALL   SUNNY     67  56  67 NE3       30.11R
HOMESTEAD      SUNNY     65  56  72 NE5       30.11R
MARATHON       SUNNY     68  61  78 NE9       30.10R
BOCA CHICA NAS SUNNY     69  63  81 NE12      30.11R
KEY WEST INTL  SUNNY     69  63  81 NE12      30.11R

...INTERNATIONAL WEATHER...

CITY           SKY/WX    TMP DP  RH WIND       PRES   REMARKS
NASSAU BAHAMAS NOT AVBL
CANCUN MEXICO  CLOUDY    73  70  88 NE2       30.03R
COZUMEL MEXICO PTSUNNY   72  70  94 NE9       30.01R

ADJACENT COASTAL WATERS...

STATION/POSITION TIME  SKY/WX   TEMP    WIND        PRES    WAVE
                                AIR SEA DIR/SP/G            HT/PER
                 (UTC)          (F)     (DEG/KT/KT) (MB)    (FT/S)
PULASKI SHOAL LI 1300            69      30/ 13/ 14 1018.5R
SAND KEY         1337            68      40/ 13/ 15 1019.1R
SOMBRERO KEY     1400            68      30/ 12/ 14 1019.8R
LONG KEY         1300            66 68   40/ 11/ 12 1019.6R
MOLASSES REEF    1400            69 76   20/ 12/ 12 1019.3R
FOWEY ROCKS      1400            71 75  350/  9/ 10 1019.9
Buoy 42080       NOT AVBL

$$




U.S. Dept. of Commerce
NOAA National Weather Service
1325 East West Highway
Silver Spring, MD 20910
E-mail: w-nws.webmaster@noaa.gov
Page last modified: May 16, 2007
NATIONAL WEATHER SERVICE: for Safety, for Work, for Fun - FOR LIFE